TimeEDT,TemperatureF,Dew PointF,Humidity,Sea Level PressureIn,VisibilityMPH,Wind Direction,Wind SpeedMPH,Gust SpeedMPH,PrecipitationIn,Events,Conditions,WindDirDegrees,DateUTC
12:53 AM,69.1,66.0,90,29.94,10.0,Variable,4.6,-,0.01,Rain,Light Rain,0,2013-07-29 04:53:00
1:32 AM,68.0,66.2,94,29.98,9.0,South,5.8,-,0.00,Thunderstorm,Thunderstorm,180,2013-07-29 05:32:00
1:53 AM,68.0,66.9,96,29.95,8.0,Variable,3.5,-,0.00,Rain,Light Rain,0,2013-07-29 05:53:00
2:19 AM,68.0,66.2,94,29.97,10.0,NW,6.9,-,0.01,Rain,Light Rain,320,2013-07-29 06:19:00
2:27 AM,68.0,66.2,94,30.00,9.0,WNW,9.2,-,0.01,Rain,Light Rain,290,2013-07-29 06:27:00
2:53 AM,68.0,66.0,93,29.96,10.0,NNW,4.6,-,0.03,,Mostly Cloudy,340,2013-07-29 06:53:00
3:01 AM,68.0,66.2,94,29.97,10.0,North,6.9,-,N/A,,Mostly Cloudy,360,2013-07-29 07:01:00
3:53 AM,68.0,64.9,90,29.96,9.0,NNW,4.6,-,N/A,,Partly Cloudy,340,2013-07-29 07:53:00
4:23 AM,66.2,64.4,94,29.98,10.0,Calm,Calm,-,N/A,,Mostly Cloudy,0,2013-07-29 08:23:00
4:31 AM,66.2,64.4,94,29.98,9.0,Calm,Calm,-,N/A,,Scattered Clouds,0,2013-07-29 08:31:00
4:53 AM,66.9,64.9,93,29.96,8.0,Calm,Calm,-,N/A,,Clear,0,2013-07-29 08:53:00
5:01 AM,64.4,64.4,100,29.98,1.8,Calm,Calm,-,N/A,,Partly Cloudy,0,2013-07-29 09:01:00
5:10 AM,66.2,64.4,94,29.98,3.0,Calm,Calm,-,N/A,,Clear,0,2013-07-29 09:10:00
5:53 AM,66.0,64.0,93,29.97,4.0,NW,6.9,-,N/A,,Clear,310,2013-07-29 09:53:00
6:02 AM,66.2,64.4,94,30.00,1.5,Calm,Calm,-,N/A,,Clear,0,2013-07-29 10:02:00
6:06 AM,64.4,62.6,94,30.00,0.8,Calm,Calm,-,N/A,,Mist,0,2013-07-29 10:06:00
6:53 AM,66.0,64.9,96,29.99,0.8,Calm,Calm,-,N/A,,Mist,0,2013-07-29 10:53:00
7:02 AM,66.2,64.4,94,30.01,2.0,West,3.5,-,N/A,,Mostly Cloudy,270,2013-07-29 11:02:00
7:08 AM,66.2,64.4,94,30.00,7.0,WNW,4.6,-,N/A,,Scattered Clouds,300,2013-07-29 11:08:00
7:53 AM,66.9,64.9,93,30.01,10.0,WNW,5.8,-,N/A,,Clear,290,2013-07-29 11:53:00
8:53 AM,71.1,64.0,78,30.01,10.0,NNW,6.9,-,N/A,,Clear,330,2013-07-29 12:53:00
9:53 AM,73.9,64.9,73,30.03,10.0,NW,5.8,-,N/A,,Clear,320,2013-07-29 13:53:00
10:53 AM,75.0,64.9,71,30.04,10.0,Variable,3.5,-,N/A,,Clear,0,2013-07-29 14:53:00
11:53 AM,77.0,64.0,64,30.03,10.0,WNW,5.8,-,N/A,,Mostly Cloudy,300,2013-07-29 15:53:00
12:02 PM,78.8,62.6,57,30.05,10.0,Variable,4.6,-,N/A,,Partly Cloudy,0,2013-07-29 16:02:00
12:53 PM,78.1,63.0,60,30.02,10.0,Variable,3.5,-,N/A,,Partly Cloudy,0,2013-07-29 16:53:00
1:53 PM,81.0,61.0,50,30.02,10.0,WSW,10.4,-,N/A,,Partly Cloudy,250,2013-07-29 17:53:00
2:53 PM,81.0,57.0,44,30.02,10.0,West,9.2,-,N/A,,Clear,270,2013-07-29 18:53:00
3:53 PM,81.0,51.1,35,30.01,10.0,West,9.2,-,N/A,,Clear,280,2013-07-29 19:53:00
4:53 PM,81.0,53.1,38,30.02,10.0,NW,9.2,-,N/A,,Clear,310,2013-07-29 20:53:00
5:53 PM,80.1,53.1,39,30.02,10.0,NW,8.1,-,N/A,,Clear,310,2013-07-29 21:53:00
6:53 PM,79.0,55.0,44,30.04,10.0,WNW,5.8,-,N/A,,Clear,300,2013-07-29 22:53:00
7:53 PM,75.9,54.0,46,30.06,10.0,WNW,4.6,-,N/A,,Clear,300,2013-07-29 23:53:00
8:53 PM,73.0,55.0,53,30.07,10.0,Calm,Calm,-,N/A,,Clear,0,2013-07-30 00:53:00
9:53 PM,72.0,54.0,53,30.09,10.0,Calm,Calm,-,N/A,,Clear,0,2013-07-30 01:53:00
10:53 PM,70.0,54.0,57,30.10,10.0,WNW,4.6,-,N/A,,Clear,300,2013-07-30 02:53:00
11:53 PM,66.9,55.9,68,30.11,10.0,NW,6.9,-,N/A,,Clear,310,2013-07-30 03:53:00